Location: Laterina
(43.5167°N, 11.7167°E)
Time: 16:41:21
(UTC+00:00)

Cosmos 2151 Rocket - Pass Details

Date: 24 September 2020
Orbit: 618 x 642 km, 82.5° (Epoch: 25 October)

Event Time Altitude Azimuth Distance (km) Brightness Sun altitude
Rises 17:31:44 0° 161° (SSE) 2,907 6.8 -5.4°
Reaches altitude 10° 17:34:09 10° 151° (SSE) 2,009 5.9 -5.9°
Maximum altitude 17:38:03 31° 90° (E) 1,127 4.4 -6.6°
Drops below altitude 10° 17:42:00 10° 29° (NNE) 2,035 6.0 -7.3°
Sets 17:44:27 0° 19° (NNE) 2,953 6.9 -7.7°
